• In Germany
  • List of Countries
  • For 7 days
  • Water Temperature
  • Satellite Maps
  • Weather Map
  • Weather Widgets
  • user-avatar
    Login

    Hourly Weather Jalalabad

    Today, 20 September, Wednesday

    Time Temperature Precipitation Wind Pressure Humidity
    00:00 +28°C° 0 mm 1 mps 706 mmHg 24%
    01:00 +28°C° 0 mm 1 mps 706 mmHg 24%
    02:00 +27°C° 0 mm 1 mps 706 mmHg 25%
    03:00 +27°C° 0 mm 1 mps 706 mmHg 26%
    04:00 +26°C° 0 mm 1 mps 706 mmHg 26%
    05:00 +26°C° 0 mm 2 mps 706 mmHg 26%
    06:00 +28°C° 0 mm 1 mps 706 mmHg 23%
    07:00 +29°C° 0 mm 1 mps 706 mmHg 21%
    08:00 +31°C° 0 mm 1 mps 707 mmHg 18%
    09:00 +32°C° 0 mm 1 mps 707 mmHg 17%
    10:00 +33°C° 0 mm 1 mps 707 mmHg 15%
    11:00 +34°C° 0 mm 1 mps 707 mmHg 14%
    12:00 +36°C° 0 mm 2 mps 707 mmHg 14%
    13:00 +36°C° 0 mm 2 mps 706 mmHg 13%
    14:00 +37°C° 0 mm 2 mps 706 mmHg 13%
    15:00 +37°C° 0 mm 2 mps 706 mmHg 13%
    16:00 +36°C° 0 mm 2 mps 706 mmHg 14%
    17:00 +36°C° 0 mm 2 mps 705 mmHg 14%
    18:00 +34°C° 0 mm 2 mps 706 mmHg 17%
    19:00 +32°C° 0 mm 1 mps 706 mmHg 21%
    20:00 +28°C° 0 mm 0 mps 706 mmHg 24%
    21:00 +29°C° 0 mm 1 mps 706 mmHg 24%
    22:00 +29°C° 0 mm 1 mps 706 mmHg 24%
    23:00 +28°C° 0 mm 1 mps 706 mmHg 24%

    Tomorrow, 21 September, Thursday

    Time Temperature Precipitation Wind Pressure Humidity
    00:00 +28°C° 0 mm 1 mps 706 mmHg 25%
    01:00 +27°C° 0 mm 1 mps 705 mmHg 25%
    02:00 +27°C° 0 mm 1 mps 705 mmHg 26%
    03:00 +26°C° 0 mm 1 mps 705 mmHg 26%
    04:00 +26°C° 0 mm 1 mps 705 mmHg 27%
    05:00 +25°C° 0 mm 1 mps 705 mmHg 27%
    06:00 +27°C° 0 mm 1 mps 706 mmHg 24%
    07:00 +28°C° 0 mm 1 mps 706 mmHg 21%
    08:00 +30°C° 0 mm 1 mps 707 mmHg 19%
    09:00 +31°C° 0 mm 1 mps 707 mmHg 17%
    10:00 +32°C° 0 mm 2 mps 707 mmHg 16%
    11:00 +34°C° 0 mm 2 mps 707 mmHg 15%
    12:00 +35°C° 0 mm 2 mps 706 mmHg 14%
    13:00 +35°C° 0 mm 2 mps 706 mmHg 14%
    14:00 +36°C° 0 mm 2 mps 706 mmHg 13%
    15:00 +36°C° 0 mm 2 mps 706 mmHg 13%
    16:00 +36°C° 0 mm 2 mps 705 mmHg 14%
    17:00 +36°C° 0 mm 2 mps 705 mmHg 14%
    18:00 +33°C° 0 mm 1 mps 705 mmHg 17%
    19:00 +31°C° 0 mm 1 mps 705 mmHg 20%
    20:00 +27°C° 0 mm 0 mps 706 mmHg 23%
    21:00 +29°C° 0 mm 1 mps 706 mmHg 23%
    22:00 +28°C° 0 mm 1 mps 706 mmHg 24%
    23:00 +28°C° 0 mm 1 mps 706 mmHg 24%

    Day after tomorrow, 22 September, Friday

    Time Temperature Precipitation Wind Pressure Humidity
    00:00 +27°C° 0 mm 1 mps 706 mmHg 25%
    01:00 +27°C° 0 mm 1 mps 706 mmHg 25%
    02:00 +26°C° 0 mm 1 mps 706 mmHg 25%
    03:00 +26°C° 0 mm 1 mps 706 mmHg 26%
    04:00 +25°C° 0 mm 1 mps 706 mmHg 26%
    05:00 +25°C° 0 mm 1 mps 706 mmHg 26%
    06:00 +27°C° 0 mm 1 mps 706 mmHg 24%
    07:00 +28°C° 0 mm 1 mps 707 mmHg 21%
    08:00 +30°C° 0 mm 1 mps 707 mmHg 19%
    09:00 +31°C° 0 mm 1 mps 707 mmHg 17%
    10:00 +32°C° 0 mm 1 mps 707 mmHg 16%
    11:00 +33°C° 0 mm 1 mps 708 mmHg 15%
    12:00 +34°C° 0 mm 1 mps 707 mmHg 14%
    13:00 +35°C° 0 mm 2 mps 707 mmHg 13%
    14:00 +36°C° 0 mm 2 mps 707 mmHg 13%
    15:00 +36°C° 0 mm 2 mps 706 mmHg 13%
    16:00 +36°C° 0 mm 2 mps 706 mmHg 14%
    17:00 +36°C° 0 mm 2 mps 706 mmHg 14%
    18:00 +34°C° 0 mm 2 mps 707 mmHg 17%
    19:00 +31°C° 0 mm 1 mps 707 mmHg 21%
    20:00 +27°C° 0 mm 0 mps 707 mmHg 24%
    21:00 +29°C° 0 mm 1 mps 707 mmHg 25%
    22:00 +28°C° 0 mm 1 mps 707 mmHg 25%
    23:00 +28°C° 0 mm 1 mps 707 mmHg 25%

    23 September, Saturday

    Time Temperature Precipitation Wind Pressure Humidity
    00:00 +27°C° 0 mm 1 mps 707 mmHg 26%
    01:00 +27°C° 0 mm 1 mps 707 mmHg 26%
    02:00 +26°C° 0 mm 1 mps 707 mmHg 26%
    03:00 +26°C° 0 mm 1 mps 707 mmHg 26%
    04:00 +25°C° 0 mm 1 mps 707 mmHg 26%
    05:00 +25°C° 0 mm 1 mps 707 mmHg 27%
    06:00 +26°C° 0 mm 1 mps 708 mmHg 24%
    07:00 +28°C° 0 mm 1 mps 708 mmHg 21%
    08:00 +30°C° 0 mm 1 mps 709 mmHg 18%
    09:00 +31°C° 0 mm 1 mps 709 mmHg 17%
    10:00 +32°C° 0 mm 1 mps 709 mmHg 15%
    11:00 +33°C° 0 mm 1 mps 709 mmHg 14%
    12:00 +35°C° 0 mm 2 mps 708 mmHg 13%
    13:00 +35°C° 0 mm 2 mps 708 mmHg 13%
    14:00 +36°C° 0 mm 2 mps 707 mmHg 12%
    15:00 +36°C° 0 mm 2 mps 707 mmHg 12%
    16:00 +36°C° 0 mm 2 mps 707 mmHg 12%
    17:00 +36°C° 0 mm 2 mps 707 mmHg 13%
    18:00 +33°C° 0 mm 1 mps 707 mmHg 16%
    19:00 +31°C° 0 mm 1 mps 707 mmHg 20%
    20:00 +27°C° 0 mm 0 mps 708 mmHg 23%
    21:00 +27°C° 0 mm 0 mps 708 mmHg 24%
    22:00 +28°C° 0 mm 1 mps 708 mmHg 25%
    23:00 +28°C° 0 mm 1 mps 708 mmHg 25%

    24 September, Sunday

    Time Temperature Precipitation Wind Pressure Humidity
    00:00 +27°C° 0 mm 1 mps 708 mmHg 26%
    01:00 +27°C° 0 mm 1 mps 708 mmHg 26%
    02:00 +26°C° 0 mm 1 mps 707 mmHg 26%
    03:00 +26°C° 0 mm 1 mps 707 mmHg 27%
    04:00 +25°C° 0 mm 1 mps 707 mmHg 27%
    05:00 +25°C° 0 mm 1 mps 707 mmHg 27%
    06:00 +26°C° 0 mm 1 mps 708 mmHg 24%
    07:00 +28°C° 0 mm 1 mps 708 mmHg 21%
    08:00 +29°C° 0 mm 1 mps 709 mmHg 17%
    09:00 +31°C° 0 mm 1 mps 709 mmHg 16%
    10:00 +32°C° 0 mm 1 mps 709 mmHg 15%
    11:00 +33°C° 0 mm 1 mps 709 mmHg 13%
    12:00 +35°C° 0 mm 2 mps 708 mmHg 13%
    13:00 +35°C° 0 mm 2 mps 708 mmHg 12%
    14:00 +36°C° 0 mm 2 mps 707 mmHg 11%
    15:00 +36°C° 0 mm 2 mps 707 mmHg 12%
    16:00 +36°C° 0 mm 2 mps 707 mmHg 12%
    17:00 +36°C° 0 mm 2 mps 707 mmHg 12%
    18:00 +33°C° 0 mm 1 mps 707 mmHg 16%
    19:00 +31°C° 0 mm 1 mps 707 mmHg 19%
    20:00 +27°C° 0 mm 0 mps 708 mmHg 23%
    21:00 +26°C° 0 mm 0 mps 708 mmHg 23%
    22:00 +28°C° 0 mm 1 mps 708 mmHg 23%
    23:00 +27°C° 0 mm 1 mps 708 mmHg 24%

    25 September, Monday

    Time Temperature Precipitation Wind Pressure Humidity
    00:00 +27°C° 0 mm 1 mps 707 mmHg 24%
    01:00 +26°C° 0 mm 1 mps 707 mmHg 25%
    02:00 +26°C° 0 mm 2 mps 707 mmHg 25%
    03:00 +25°C° 0 mm 2 mps 707 mmHg 25%
    04:00 +25°C° 0 mm 2 mps 707 mmHg 25%
    05:00 +24°C° 0 mm 2 mps 706 mmHg 25%
    06:00 +26°C° 0 mm 2 mps 707 mmHg 22%
    07:00 +27°C° 0 mm 2 mps 708 mmHg 20%
    08:00 +29°C° 0 mm 2 mps 708 mmHg 17%
    09:00 +30°C° 0 mm 2 mps 708 mmHg 15%
    10:00 +32°C° 0 mm 2 mps 708 mmHg 14%
    11:00 +34°C° 0 mm 2 mps 708 mmHg 12%
    12:00 +35°C° 0 mm 2 mps 708 mmHg 12%
    13:00 +35°C° 0 mm 2 mps 707 mmHg 11%
    14:00 +36°C° 0 mm 2 mps 707 mmHg 10%
    15:00 +36°C° 0 mm 2 mps 707 mmHg 11%
    16:00 +35°C° 0 mm 2 mps 707 mmHg 11%
    17:00 +35°C° 0 mm 2 mps 707 mmHg 11%
    18:00 +32°C° 0 mm 1 mps 707 mmHg 14%
    19:00 +30°C° 0 mm 1 mps 707 mmHg 17%
    20:00 +28°C° 0 mm 1 mps 707 mmHg 21%
    21:00 +28°C° 0 mm 1 mps 707 mmHg 21%
    22:00 +28°C° 0 mm 2 mps 707 mmHg 21%
    23:00 +27°C° 0 mm 2 mps 707 mmHg 20%
    Show more